Tracking 19920 objects as of 14-Oct-2019
HD Live streaming from Space Station
objects crossing your sky now

COSMOS 1375 DEB

Track COSMOS 1375 DEB now!
10-day predictions


NORAD ID: 16203
Int'l Code: 1982-055E
Perigee: 894.2 km
Apogee: 984.7 km
Inclination: 65.8 °
Period: 103.7 minutes
Semi major axis: 7310 km
RCS: 0.1211 m2 (medium)
Launch date: June 6, 1982
Source: Commonwealth of Independent States (former USSR) (CIS)
Launch site: PLESETSK MISSILE AND SPACE COMPLEX (PKMTR)

Note: This is SATELLITE DEBRIS
aabbcc
Your satellite tracking list
Your tracking list is empty




NASA's NSSDC Master Catalog

Two Line Element Set (TLE):
1 16203U 82055E   19287.23527242 -.00000055  00000-0  23190-4 0  9996
2 16203  65.8343 302.2448 0061877 150.2506 287.3193 13.88948287892374
Source of the keplerian elements: AFSPC